Location: Macksville High School
(37.9611°N, 99.9654°W)
Time: 09:29:45
(UTC+00:00)

ADEOS Rocket - Pass Details

Date: 27 February 2020
Orbit: 859 x 1306 km, 98.7° (Epoch: 28 March)

Event Time Altitude Azimuth Distance (km) Brightness Sun altitude
Rises 12:17:14 0° 156° (SSE) 3,731 6.4 -12.1°
Reaches altitude 10° 12:19:37 10° 154° (SSE) 2,841 5.8 -11.7°
Maximum altitude 12:26:02 69° 73° (ENE) 1,202 3.7 -10.4°
Drops below altitude 10° 12:33:13 10° 352° (N) 3,165 5.6 -9.0°
Sets 12:35:59 0° 350° (N) 4,184 6.2 -8.4°
